TimeMDT,TemperatureF,Dew PointF,Humidity,Sea Level PressureIn,VisibilityMPH,Wind Direction,Wind SpeedMPH,Gust SpeedMPH,PrecipitationIn,Events,Conditions,WindDirDegrees,DateUTC
12:15 AM,59.4,57.6,94,30.40,10.0,North,3.5,-,N/A,,Clear,10,2013-08-26 06:15:00
12:35 AM,58.1,56.8,96,30.39,10.0,Calm,Calm,-,N/A,,Clear,0,2013-08-26 06:35:00
12:55 AM,57.7,56.8,97,30.40,10.0,NW,3.5,-,N/A,,Clear,320,2013-08-26 06:55:00
1:15 AM,56.8,55.8,96,30.40,10.0,West,3.5,-,N/A,,Scattered Clouds,280,2013-08-26 07:15:00
1:35 AM,57.2,56.5,97,30.39,10.0,WNW,4.6,-,N/A,,Scattered Clouds,290,2013-08-26 07:35:00
1:55 AM,57.4,56.7,97,30.38,10.0,WNW,4.6,-,N/A,,Clear,290,2013-08-26 07:55:00
2:15 AM,57.6,56.8,97,30.38,10.0,WNW,4.6,-,N/A,,Clear,300,2013-08-26 08:15:00
2:35 AM,57.4,56.5,97,30.38,10.0,WNW,4.6,-,N/A,,Clear,300,2013-08-26 08:35:00
2:55 AM,56.1,55.4,97,30.38,10.0,Calm,Calm,-,N/A,,Clear,0,2013-08-26 08:55:00
3:15 AM,55.4,54.7,97,30.38,10.0,Calm,Calm,-,N/A,,Clear,0,2013-08-26 09:15:00
3:35 AM,55.6,55.6,100,30.38,10.0,NW,4.6,-,N/A,,Clear,310,2013-08-26 09:35:00
3:55 AM,54.9,54.9,100,30.38,7.0,NW,3.5,-,N/A,,Scattered Clouds,310,2013-08-26 09:55:00
4:15 AM,54.9,54.9,100,30.38,10.0,NW,3.5,-,N/A,,Scattered Clouds,310,2013-08-26 10:15:00
4:35 AM,55.0,55.0,100,30.39,10.0,Calm,Calm,-,N/A,,Clear,0,2013-08-26 10:35:00
4:55 AM,54.1,54.0,99,30.39,10.0,NW,3.5,-,N/A,,Clear,310,2013-08-26 10:55:00
5:15 AM,55.2,55.2,100,30.40,10.0,Calm,Calm,-,N/A,,Clear,0,2013-08-26 11:15:00
5:35 AM,53.2,53.2,100,30.39,0.5,Calm,Calm,-,N/A,Fog,Fog,0,2013-08-26 11:35:00
5:55 AM,52.7,52.7,100,30.40,0.2,Calm,Calm,-,N/A,Fog,Fog,0,2013-08-26 11:55:00
6:15 AM,52.0,52.0,100,30.40,0.2,NNW,4.6,-,N/A,Fog,Fog,340,2013-08-26 12:15:00
6:35 AM,53.2,53.2,100,30.40,0.2,NNW,4.6,-,N/A,Fog,Fog,330,2013-08-26 12:35:00
6:55 AM,53.2,53.2,100,30.40,0.2,WNW,3.5,-,N/A,Fog,Fog,290,2013-08-26 12:55:00
7:15 AM,53.6,53.6,100,30.40,0.2,WNW,3.5,-,N/A,Fog,Fog,300,2013-08-26 13:15:00
7:35 AM,53.6,53.6,100,30.41,0.2,NW,3.5,-,N/A,Fog,Fog,310,2013-08-26 13:35:00
7:55 AM,54.5,54.5,100,30.41,0.2,Calm,Calm,-,N/A,Fog,Fog,0,2013-08-26 13:55:00
8:15 AM,55.6,55.6,100,30.42,0.2,Calm,Calm,-,N/A,Fog,Fog,0,2013-08-26 14:15:00
8:35 AM,56.7,56.7,100,30.42,2.5,Calm,Calm,-,N/A,,Overcast,0,2013-08-26 14:35:00
8:55 AM,57.9,57.9,100,30.42,10.0,Calm,Calm,-,N/A,,Scattered Clouds,0,2013-08-26 14:55:00
9:15 AM,61.5,60.1,95,30.42,10.0,SSE,3.5,-,N/A,,Clear,150,2013-08-26 15:15:00
9:35 AM,64.4,59.9,85,30.42,10.0,SE,6.9,-,N/A,,Clear,140,2013-08-26 15:35:00
9:55 AM,-9999,-9999,N/A,-9999,-9999.0,North,-9999.0,-,N/A,,Unknown,0,2013-08-26 15:55:00
10:15 AM,-9999,-9999,N/A,-9999,-9999.0,North,-9999.0,-,N/A,,Unknown,0,2013-08-26 16:15:00
10:35 AM,-9999,-9999,N/A,-9999,-9999.0,North,-9999.0,-,N/A,,Unknown,0,2013-08-26 16:35:00
10:55 AM,-9999,-9999,N/A,-9999,-9999.0,North,-9999.0,-,N/A,,Unknown,0,2013-08-26 16:55:00
11:15 AM,72.9,57.2,58,30.41,10.0,SSE,11.5,-,N/A,,Clear,150,2013-08-26 17:15:00
11:35 AM,74.1,57.0,55,30.40,10.0,ESE,8.1,-,N/A,,Clear,110,2013-08-26 17:35:00
11:55 AM,75.0,56.5,52,30.40,10.0,East,6.9,-,N/A,,Scattered Clouds,90,2013-08-26 17:55:00
12:15 PM,73.9,56.5,54,30.39,10.0,ESE,6.9,-,N/A,,Mostly Cloudy,110,2013-08-26 18:15:00
12:35 PM,74.8,55.6,51,30.38,10.0,SE,4.6,-,N/A,,Mostly Cloudy,130,2013-08-26 18:35:00
12:55 PM,74.5,54.1,49,30.38,10.0,South,6.9,-,N/A,Thunderstorm,Overcast,170,2013-08-26 18:55:00
1:15 PM,71.4,57.7,62,30.38,10.0,SSW,8.1,-,N/A,,Overcast,210,2013-08-26 19:15:00
1:35 PM,69.3,56.5,64,30.37,10.0,WSW,9.2,-,N/A,,Overcast,240,2013-08-26 19:35:00
1:55 PM,68.0,56.8,67,30.37,10.0,West,12.7,16.1,N/A,,Light Drizzle,260,2013-08-26 19:55:00
2:15 PM,69.3,56.8,65,30.37,10.0,WNW,10.4,-,N/A,,Overcast,290,2013-08-26 20:15:00
2:35 PM,71.1,57.9,63,30.35,10.0,NW,5.8,-,N/A,,Overcast,310,2013-08-26 20:35:00
2:55 PM,75.7,55.4,49,30.34,10.0,Calm,Calm,-,N/A,,Mostly Cloudy,0,2013-08-26 20:55:00
3:15 PM,76.8,53.2,44,30.32,10.0,Calm,Calm,-,N/A,,Scattered Clouds,0,2013-08-26 21:15:00
3:35 PM,78.8,50.2,37,30.32,10.0,SSE,12.7,16.1,N/A,Thunderstorm,Scattered Clouds,150,2013-08-26 21:35:00
3:55 PM,78.3,48.4,35,30.31,10.0,SE,9.2,18.4,N/A,,Scattered Clouds,130,2013-08-26 21:55:00
4:15 PM,80.2,48.2,32,30.30,10.0,ESE,12.7,19.6,N/A,,Scattered Clouds,120,2013-08-26 22:15:00
4:35 PM,78.4,48.6,35,30.30,10.0,SSE,16.1,19.6,N/A,,Scattered Clouds,160,2013-08-26 22:35:00
4:55 PM,80.6,47.7,31,30.29,10.0,SE,12.7,20.7,N/A,,Scattered Clouds,140,2013-08-26 22:55:00
5:15 PM,78.3,46.8,33,30.29,10.0,South,11.5,-,N/A,,Scattered Clouds,180,2013-08-26 23:15:00
5:35 PM,77.4,47.7,35,30.28,10.0,South,9.2,-,N/A,,Scattered Clouds,170,2013-08-26 23:35:00
5:55 PM,76.5,49.6,39,30.28,10.0,South,10.4,-,N/A,,Scattered Clouds,190,2013-08-26 23:55:00
6:15 PM,75.6,51.3,42,30.28,10.0,SSW,9.2,-,N/A,,Scattered Clouds,200,2013-08-27 00:15:00
6:35 PM,75.2,51.1,43,30.28,10.0,South,8.1,-,N/A,,Clear,190,2013-08-27 00:35:00
6:55 PM,74.8,51.1,43,30.28,10.0,North,-9999.0,-,N/A,,Clear,0,2013-08-27 00:55:00
7:15 PM,72.9,52.2,48,30.28,10.0,South,4.6,-,N/A,,Clear,170,2013-08-27 01:15:00
7:35 PM,70.7,54.5,56,30.28,10.0,SW,5.8,-,N/A,,Clear,230,2013-08-27 01:35:00
7:55 PM,68.2,55.4,64,30.29,10.0,South,5.8,-,N/A,,Clear,190,2013-08-27 01:55:00
8:15 PM,67.1,54.5,64,30.29,10.0,South,5.8,-,N/A,,Scattered Clouds,170,2013-08-27 02:15:00
8:35 PM,65.8,54.7,67,30.30,10.0,SSW,4.6,-,N/A,,Scattered Clouds,200,2013-08-27 02:35:00
8:55 PM,66.0,54.5,66,30.31,10.0,SSW,3.5,-,N/A,,Mostly Cloudy,200,2013-08-27 02:55:00
9:15 PM,64.8,54.5,69,30.32,10.0,Calm,Calm,-,N/A,,Scattered Clouds,0,2013-08-27 03:15:00
9:35 PM,63.5,54.3,72,30.32,10.0,Calm,Calm,-,N/A,,Scattered Clouds,0,2013-08-27 03:35:00
9:55 PM,62.4,54.0,74,30.33,10.0,Calm,Calm,-,N/A,,Scattered Clouds,0,2013-08-27 03:55:00
10:15 PM,63.9,53.8,70,30.34,10.0,SSW,3.5,-,N/A,,Clear,200,2013-08-27 04:15:00
10:35 PM,64.0,53.1,67,30.34,10.0,Calm,Calm,-,N/A,,Scattered Clouds,0,2013-08-27 04:35:00
10:55 PM,62.2,55.0,77,30.34,10.0,Calm,Calm,-,N/A,,Mostly Cloudy,0,2013-08-27 04:55:00
11:15 PM,61.0,55.6,82,30.34,10.0,Calm,Calm,-,N/A,,Overcast,0,2013-08-27 05:15:00
11:35 PM,60.4,54.9,82,30.34,10.0,Calm,Calm,-,N/A,,Mostly Cloudy,0,2013-08-27 05:35:00
11:55 PM,61.0,53.6,77,30.34,10.0,WSW,4.6,-,N/A,,Scattered Clouds,240,2013-08-27 05:55:00